Showing default

STEP 2, 23105

Orbit data source: Space-Track

STEP 2, 23105 is a payload satellite owned by USAF STP (US) in LEO that was launched on Thu, 19 May 1994 UTC via a PEGASUS/HAPS launch vehicle from the Air Force Western Test Range (AFWTR). Payload-class satellites include a variety of spacecraft equipped with specific instruments for various scientific and technological missions. These include communications satellites like Starlink; space stations such as the ISS; scientific satellites like the Hubble; Earth observation satellites from companies like Planet Labs, Umbra, and HawkEye 360; GPS; miniature CubeSats for education and research; and military/defense satellites.

Loading next visibility...
Identifier
23105, 1994-029A
Orbit
LEO
Country
Flag of USUS
Related business
Manufacturer
TRWC/CTA
Mission
Defense Technology
Bus & Motor
LEOSTAR T-200, Unknown motor
Mass
180 kg wet, 180 kg dry
Launch date (UTC)
1994-05-19 (32 years ago)
Launch vehicle
PEGASUS/HAPS
Launch site
Air Force Western Test Range (AFWTR)
Object type
Payload
Rocket body
Debris
Shape & HBR
Cyl + 4 Pan, 1.5 m
Radar Cross Section
3.076 m², Large (>1 m²)

Expand to show TLE details & history
Last TLE update: 18 hours ago

TLE from 18 hours ago
0 STEP 2
1 23105U 94029A   26062.10114992  .00003666  00000-0  35433-3 0  9990
2 23105  81.9360 282.1201 0082247 247.5570 111.6921 14.90013674704084
Epoch: 2026-03-03T02:25Z
TLE epoch observation values (Epoch: 2026-03-03T02:25:39.353Z)
Latitude
-0.00005°
Longitude
84.82108°
Altitude
622.54 km
Speed
7.536 km/s
True Right ascension
18h 48m 28s
True Declination
0° 00' 00"
Sunlit
Object was in daylight at epoch
Visualization orbit readout
Latitude
Unknown
Longitude
Unknown
Altitude
Unknown
Speed
Unknown
Apparent Right ascension
Unknown
Apparent Declination
Unknown
Sunlit
N/A
Visualization observer readout
Local Sidereal Time
00:15:14
Azimuth
Unknown
Elevation
Unknown
Doppler factor
Unknown
Orbital elements
Apogee altitude
652.279 km
Perigee altitude
537.576 km
Semi-major axis
6,973.065 km
Eccentricity
0.00822
Inclination
81.936°
RAAN
282.1201°
Arg. of periapsis
247.557°
True anomaly
112.56449°
Mean anomaly
111.6921°
Eccentric anomaly
112.12863°
Mean motion
3.72741 °/min
Orbital period
96.58 mins
BSTAR
0.00035433
Loading maneuver chart data...
Computing Atmospheric mass density...
Loading historical data...
Loading historical data...
Loading historical data...
Loading historical data...
Loading historical data...
Loading historical data...
Loading historical data...

Documentation

Showing up to 5 results
|